WetterOnline ( https://www.wetteronline.de )

Wetter aktuell Bodenmais

Aktuelles Wetter: Zwiesel (613m)

6-stündlich | Neueste Meldungen
Ortszeit Temperatur Wetter
Fr, 02.12. 13:00 1.0° C bewölkt
Fr, 02.12. 7:00 -0.1° C wolkig
Fr, 02.12. 1:00 2.0° C bedeckt
Do, 01.12. 19:00 2.9° C bedeckt
Do, 01.12. 13:00 5.0° C bedeckt
Do, 01.12. 7:00 -2.8° C Nebel
Do, 01.12. 1:00 -1.2° C bewölkt
Mi, 30.11. 19:00 0.0° C bewölkt
Ortszeit Temperatur Wetter
Fr, 02.12. 15:00 0.4° C Schneegriesel
Fr, 02.12. 14:50 0.4° C Schneegriesel
Fr, 02.12. 14:40 0.5° C Schneegriesel
Fr, 02.12. 14:30 0.6° C leichter Schneefall
Fr, 02.12. 14:20 0.6° C leichter Schneefall
Fr, 02.12. 14:10 0.6° C leichter Schneefall
Fr, 02.12. 14:00 0.8° C leichter Schneefall
Fr, 02.12. 13:30 0.9° C Schneegriesel
Fr, 02.12. 13:00 1.0° C bewölkt
Fr, 02.12. 12:30 1.3° C bewölkt
Fr, 02.12. 12:00 1.4° C bewölkt
Ortszeit Relative Feuchte Sichtweite
Fr, 02.12. 13:00 83% 15 km
Fr, 02.12. 7:00 88% 9 km
Fr, 02.12. 1:00 79% 27 km
Do, 01.12. 19:00 77% 35 km
Do, 01.12. 13:00 72% 65 km
Do, 01.12. 7:00 95% 19 km
Do, 01.12. 1:00 96% 11 km
Mi, 30.11. 19:00 87% 25 km
Ortszeit Relative Feuchte Sichtweite
Fr, 02.12. 15:00 86% 12 km
Fr, 02.12. 14:50 86% -
Fr, 02.12. 14:40 86% -
Fr, 02.12. 14:30 85% 5.0 km
Fr, 02.12. 14:20 85% -
Fr, 02.12. 14:10 83% -
Fr, 02.12. 14:00 83% 7 km
Fr, 02.12. 13:30 82% 13 km
Fr, 02.12. 13:00 83% 15 km
Fr, 02.12. 12:30 83% 15 km
Fr, 02.12. 12:00 83% 13 km
Ortszeit Niederschlagsmenge Niederschlagsart
Fr, 02.12. 13:00 0.0 l/m2 in 6 Std. -
Fr, 02.12. 7:00 0.1 l/m2 in 12 Std. Schnee, Regen
Fr, 02.12. 1:00 0.1 l/m2 in 6 Std. Regen
Do, 01.12. 19:00 0.1 l/m2 in 12 Std. Regen
Do, 01.12. 13:00 0.0 l/m2 in 6 Std. -
Do, 01.12. 7:00 0.0 l/m2 in 12 Std. -
Do, 01.12. 1:00 0.0 l/m2 in 6 Std. -
Mi, 30.11. 19:00 0.0 l/m2 in 12 Std. -
Ortszeit Niederschlagsmenge Niederschlagsart
Fr, 02.12. 15:00 <0.05 l/m2 in 1 Std. Schnee
Fr, 02.12. 14:50 keine Meldung -
Fr, 02.12. 14:40 keine Meldung -
Fr, 02.12. 14:30 <0.05 l/m2 in 30 Min -
Fr, 02.12. 14:20 keine Meldung -
Fr, 02.12. 14:10 keine Meldung -
Fr, 02.12. 14:00 <0.05 l/m2 in 1 Std. Schnee, Sprühregen
Fr, 02.12. 13:30 <0.05 l/m2 in 30 Min -
Fr, 02.12. 13:00 0.0 l/m2 in 1 Std. -
Fr, 02.12. 12:30 0.0 l/m2 in 30 Min -
Fr, 02.12. 12:00 0.0 l/m2 in 1 Std. -
Ortszeit Stärke Spitze Richtung
km/h Bft. km/h Grad Sektor
Fr, 02.12. 13:00 11 2 22 20° N
Fr, 02.12. 7:00 11 2 22 10° N
Fr, 02.12. 1:00 11 2 22 30° NO
Do, 01.12. 19:00 11 2 29 30° NO
Do, 01.12. 13:00 7 2 19 30° NO
Do, 01.12. 7:00 4 1 11 190° S
Do, 01.12. 1:00 2 1 17 170° S
Mi, 30.11. 19:00 6 1 19 40° NO
Ortszeit Stärke Spitze Richtung
km/h Bft. km/h Grad Sektor
Fr, 02.12. 15:00 9 2 22 30° NO
Fr, 02.12. 14:50 9 2 - 30° NO
Fr, 02.12. 14:40 9 2 - 10° N
Fr, 02.12. 14:30 11 2 22 20° N
Fr, 02.12. 14:20 11 2 - 20° N
Fr, 02.12. 14:10 13 3 - 20° N
Fr, 02.12. 14:00 11 2 22 20° N
Fr, 02.12. 13:30 14 3 22 20° N
Fr, 02.12. 13:00 11 2 22 20° N
Fr, 02.12. 12:30 11 2 22 10° N
Fr, 02.12. 12:00 11 2 18 10° N
Ortszeit Untergrenze Bedeckung Gattung
total tief tief mittel hoch
Fr, 02.12. 13:00 570 m 7/8 7/8 - - -
Fr, 02.12. 7:00 390 m 8/8 1/8 - - -
Fr, 02.12. 1:00 1410 m 8/8 8/8 - - -
Do, 01.12. 19:00 960 m 8/8 8/8 - - -
Do, 01.12. 13:00 1080 m 8/8 8/8 - - -
Do, 01.12. 7:00 1230 m 7/8 5/8 - - -
Do, 01.12. 1:00 2400 m 7/8 7/8 - - -
Mi, 30.11. 19:00 4200 m 7/8 7/8 - - -
Ortszeit Bedeckungsgrad in Achtel und Wolkenuntergrenze
Fr, 02.12. 15:00 5(810m)
Fr, 02.12. 14:50 5(810m)
Fr, 02.12. 14:40 2
Fr, 02.12. 14:30 2(60m) 4(270m)
Fr, 02.12. 14:20 2(60m) 4(270m) 4(600m)
Fr, 02.12. 14:10 5
Fr, 02.12. 14:00 1(300m) 7(540m)
Fr, 02.12. 13:30 7(540m)
Fr, 02.12. 13:00 7(570m)
Fr, 02.12. 12:30 7(600m) 7(750m)
Fr, 02.12. 12:00 1(330m) 3(540m) 7(690m)
Ortszeit Luftdruck NN (hPa) Tendenz (hPa in 3 Std.)
Fr, 02.12. 13:00 1020 - 0,8
Fr, 02.12. 7:00 1021 - 0,4
Fr, 02.12. 1:00 1022 - 1,0
Do, 01.12. 19:00 1023 + 0,3
Do, 01.12. 13:00 1022 - 1,0
Do, 01.12. 7:00 1025 0,0
Do, 01.12. 1:00 1025 - 0,3
Mi, 30.11. 19:00 1024 + 0,6
Ortszeit Luftdruck NN (hPa) Tendenz (hPa in 3 Std.)
Fr, 02.12. 15:00 1020 - 0,6
Fr, 02.12. 14:50 1020 keine Meldung
Fr, 02.12. 14:40 1020 keine Meldung
Fr, 02.12. 14:30 1020 - 0,9
Fr, 02.12. 14:20 1020 keine Meldung
Fr, 02.12. 14:10 1020 keine Meldung
Fr, 02.12. 14:00 1020 - 1,0
Fr, 02.12. 13:30 1020 - 0,8
Fr, 02.12. 13:00 1020 - 0,8
Fr, 02.12. 12:30 1020 - 0,7
Fr, 02.12. 12:00 1020 - 0,6
Ortszeit Schneehöhe (cm)
Fr, 02.12. 13:00 0
Fr, 02.12. 7:00 0
Fr, 02.12. 1:00 0
Do, 01.12. 19:00 0
Do, 01.12. 13:00 0
Do, 01.12. 7:00 0
Do, 01.12. 1:00 0
Mi, 30.11. 19:00 0
Ortszeit Schneehöhe (cm)
Fr, 02.12. 15:00 0
Fr, 02.12. 14:50 0
Fr, 02.12. 14:40 0
Fr, 02.12. 14:30 0
Fr, 02.12. 14:20 0
Fr, 02.12. 14:10 0
Fr, 02.12. 14:00 0
Fr, 02.12. 13:30 0
Fr, 02.12. 13:00 0
Fr, 02.12. 12:30 0
Fr, 02.12. 12:00 0
Link zu dieser Seite / Seite empfehlen

Das Wetter in ...